QFA47 YPPH-WIII

Flight info

Callsign QFA47
Flight time N/A
Altitude 33000
Route AVNEX Y15 ESDEG/N0467F340 Q587 IGLUT T58 SAPDA/N0471F360 A585 IPKON
Aircraft B738/M-SDE2E3FGHIRWXY/LB1

Departure

Time 2026-05-07 12:20
Airport Perth International Airport (YPPH)

Arrival

Time N/A
Airport Soekarno-Hatta International Airport (WIII)
Time Latitude Longitude Altitude Speed Heading
2026-05-07 11:22 -31.93439 115.96179 58 ft 0 kts 299°
2026-05-07 12:05 -31.93444 115.96189 51 ft 2 kts 298°
2026-05-07 12:05 -31.93452 115.96205 51 ft 2 kts 298°
2026-05-07 12:06 -31.93460 115.96222 53 ft 2 kts 296°
2026-05-07 12:06 -31.93466 115.96240 50 ft 2 kts 283°
2026-05-07 12:06 -31.93467 115.96260 53 ft 2 kts 239°
2026-05-07 12:06 -31.93454 115.96272 49 ft 2 kts 205°
2026-05-07 12:07 -31.93450 115.96274 51 ft 0 kts 204°
2026-05-07 12:11 -31.93451 115.96273 57 ft 1 kts 204°
2026-05-07 12:11 -31.93473 115.96260 54 ft 5 kts 206°
2026-05-07 12:11 -31.93504 115.96239 55 ft 5 kts 212°
2026-05-07 12:11 -31.93535 115.96216 52 ft 6 kts 212°
2026-05-07 12:12 -31.93580 115.96198 57 ft 8 kts 194°
2026-05-07 12:12 -31.93643 115.96181 57 ft 10 kts 193°
2026-05-07 12:12 -31.93709 115.96181 56 ft 9 kts 170°
2026-05-07 12:12 -31.93773 115.96193 63 ft 9 kts 171°
2026-05-07 12:13 -31.93834 115.96208 60 ft 9 kts 165°
2026-05-07 12:13 -31.93898 115.96227 62 ft 11 kts 167°
2026-05-07 12:13 -31.93980 115.96249 61 ft 13 kts 166°
2026-05-07 12:13 -31.94072 115.96256 61 ft 14 kts 193°
2026-05-07 12:14 -31.94175 115.96226 63 ft 17 kts 194°
2026-05-07 12:14 -31.94291 115.96192 61 ft 18 kts 193°
2026-05-07 12:14 -31.94416 115.96155 58 ft 20 kts 194°
2026-05-07 12:14 -31.94547 115.96117 59 ft 19 kts 194°
2026-05-07 12:15 -31.94674 115.96081 65 ft 18 kts 193°
2026-05-07 12:15 -31.94796 115.96045 68 ft 18 kts 193°
2026-05-07 12:15 -31.94914 115.96011 65 ft 17 kts 194°
2026-05-07 12:15 -31.95026 115.95978 66 ft 17 kts 193°
2026-05-07 12:16 -31.95135 115.95946 62 ft 16 kts 194°
2026-05-07 12:16 -31.95241 115.95915 66 ft 15 kts 194°
2026-05-07 12:16 -31.95342 115.95885 71 ft 15 kts 194°
2026-05-07 12:16 -31.95439 115.95857 61 ft 14 kts 194°
2026-05-07 12:17 -31.95531 115.95830 63 ft 13 kts 194°
2026-05-07 12:17 -31.95620 115.95804 66 ft 13 kts 194°
2026-05-07 12:17 -31.95706 115.95779 65 ft 13 kts 194°
2026-05-07 12:17 -31.95791 115.95765 68 ft 12 kts 165°
2026-05-07 12:18 -31.95835 115.95842 70 ft 12 kts 102°
2026-05-07 12:18 -31.95855 115.95935 65 ft 12 kts 104°
2026-05-07 12:18 -31.95833 115.95985 66 ft 6 kts 11°
2026-05-07 12:18 -31.95792 115.95995 68 ft 6 kts 12°
2026-05-07 12:19 -31.95788 115.95996 65 ft 0 kts 12°
2026-05-07 12:19 -31.95785 115.95997 68 ft 2 kts 13°
2026-05-07 12:19 -31.95680 115.96027 68 ft 46 kts 14°
2026-05-07 12:20 -31.95147 115.96181 68 ft 112 kts 13°
2026-05-07 12:20 -31.94192 115.96462 74 ft 167 kts 12°
2026-05-07 12:20 -31.93008 115.96766 616 ft 175 kts 12°
2026-05-07 12:20 -31.91810 115.97048 1349 ft 180 kts 14°
2026-05-07 12:21 -31.90537 115.97267 2062 ft 187 kts 16°
2026-05-07 12:21 -31.89276 115.97603 2858 ft 183 kts 22°
2026-05-07 12:21 -31.87985 115.97826 3375 ft 204 kts 355°
2026-05-07 12:21 -31.86681 115.96941 3679 ft 238 kts 315°
2026-05-07 12:22 -31.85975 115.95093 3933 ft 264 kts 286°
2026-05-07 12:22 -31.85651 115.92943 4413 ft 269 kts 280°
2026-05-07 12:22 -31.85416 115.90763 5027 ft 267 kts 279°
2026-05-07 12:22 -31.85188 115.88598 5604 ft 267 kts 280°
2026-05-07 12:23 -31.84926 115.86420 6059 ft 275 kts 280°
2026-05-07 12:23 -31.84646 115.84128 6422 ft 289 kts 280°
2026-05-07 12:23 -31.84376 115.81937 7121 ft 289 kts 279°
2026-05-07 12:23 -31.84085 115.79604 7894 ft 289 kts 279°
2026-05-07 12:24 -31.83783 115.77250 8560 ft 293 kts 282°
2026-05-07 12:24 -31.83029 115.75068 9190 ft 294 kts 308°
2026-05-07 12:24 -31.81523 115.73488 9878 ft 291 kts 335°
2026-05-07 12:24 -31.79585 115.72833 10392 ft 296 kts 359°
2026-05-07 12:25 -31.77465 115.72956 10564 ft 315 kts
2026-05-07 12:25 -31.75217 115.73262 10730 ft 335 kts
2026-05-07 12:25 -31.72832 115.73621 10895 ft 355 kts
2026-05-07 12:25 -31.70341 115.73996 11275 ft 366 kts
2026-05-07 12:26 -31.67801 115.74368 11879 ft 369 kts
2026-05-07 12:26 -31.65252 115.74730 12575 ft 369 kts
2026-05-07 12:26 -31.62733 115.75080 13225 ft 372 kts
2026-05-07 12:26 -31.60154 115.75433 13839 ft 374 kts
2026-05-07 12:27 -31.57557 115.75787 14428 ft 377 kts
2026-05-07 12:27 -31.54941 115.76142 14972 ft 380 kts
2026-05-07 12:27 -31.52310 115.76496 15513 ft 382 kts
2026-05-07 12:27 -31.49653 115.76853 16033 ft 385 kts
2026-05-07 12:28 -31.46977 115.77213 16546 ft 389 kts
2026-05-07 12:28 -31.44282 115.77576 17056 ft 392 kts
2026-05-07 12:28 -31.41600 115.77934 17561 ft 394 kts
2026-05-07 12:28 -31.38863 115.78298 18048 ft 397 kts
2026-05-07 12:29 -31.36104 115.78669 18522 ft 400 kts
2026-05-07 12:29 -31.33328 115.79043 18955 ft 403 kts
2026-05-07 12:29 -31.30531 115.79420 19370 ft 406 kts
2026-05-07 12:29 -31.27708 115.79799 19792 ft 409 kts
2026-05-07 12:30 -31.24871 115.80180 20209 ft 412 kts
2026-05-07 12:30 -31.22050 115.80558 20621 ft 415 kts
2026-05-07 12:30 -31.19170 115.80943 21013 ft 418 kts
2026-05-07 12:30 -31.16271 115.81330 21408 ft 421 kts
2026-05-07 12:31 -31.13352 115.81720 21802 ft 424 kts
2026-05-07 12:31 -31.10413 115.82113 22178 ft 427 kts
2026-05-07 12:31 -31.07452 115.82507 22565 ft 429 kts
2026-05-07 12:31 -31.04474 115.82904 22907 ft 432 kts
2026-05-07 12:32 -31.01473 115.83304 23275 ft 435 kts
2026-05-07 12:32 -30.98497 115.83701 23617 ft 437 kts
2026-05-07 12:32 -30.95469 115.84104 23970 ft 440 kts
2026-05-07 12:32 -30.92419 115.84510 24266 ft 442 kts
2026-05-07 12:33 -30.86272 115.85326 24822 ft 447 kts
2026-05-07 12:33 -30.83175 115.85737 25112 ft 449 kts
2026-05-07 12:33 -30.80066 115.86143 25383 ft 452 kts
2026-05-07 12:34 -30.76927 115.86500 25667 ft 454 kts
2026-05-07 12:34 -30.73774 115.86824 25914 ft 456 kts
2026-05-07 12:34 -30.70643 115.87134 26173 ft 459 kts
2026-05-07 12:34 -30.67454 115.87449 26417 ft 461 kts
2026-05-07 12:35 -30.64256 115.87768 26669 ft 463 kts
2026-05-07 12:35 -30.61033 115.88094 26908 ft 465 kts
2026-05-07 12:35 -30.57806 115.88425 27133 ft 468 kts
2026-05-07 12:35 -30.54554 115.88761 27359 ft 470 kts
2026-05-07 12:36 -30.51295 115.89098 27597 ft 472 kts
2026-05-07 12:36 -30.48018 115.89436 27821 ft 474 kts
2026-05-07 12:36 -30.44773 115.89772 28033 ft 476 kts
2026-05-07 12:36 -30.41471 115.90113 28245 ft 477 kts
2026-05-07 12:37 -30.38162 115.90454 28533 ft 477 kts
2026-05-07 12:37 -30.34855 115.90795 28879 ft 476 kts
2026-05-07 12:37 -30.31560 115.91134 29225 ft 475 kts
2026-05-07 12:37 -30.28266 115.91473 29511 ft 476 kts
2026-05-07 12:38 -30.24964 115.91813 29776 ft 476 kts
2026-05-07 12:38 -30.21664 115.92152 30069 ft 476 kts
2026-05-07 12:38 -30.18407 115.92487 30389 ft 476 kts
2026-05-07 12:38 -30.15112 115.92825 30635 ft 476 kts
2026-05-07 12:39 -30.11810 115.93163 30851 ft 476 kts
2026-05-07 12:39 -30.08507 115.93502 31079 ft 477 kts
2026-05-07 12:39 -30.05204 115.93840 31309 ft 476 kts
2026-05-07 12:39 -30.01905 115.94178 31581 ft 475 kts
2026-05-07 12:40 -29.98614 115.94514 31844 ft 475 kts
2026-05-07 12:40 -29.95323 115.94851 32064 ft 475 kts
2026-05-07 12:40 -29.92077 115.95182 32288 ft 475 kts
2026-05-07 12:40 -29.88789 115.95518 32519 ft 474 kts
2026-05-07 12:41 -29.85499 115.95854 32753 ft 474 kts
2026-05-07 12:41 -29.82211 115.96189 32952 ft 475 kts
2026-05-07 12:41 -29.78921 115.96524 33140 ft 475 kts
2026-05-07 12:41 -29.75623 115.96859 33340 ft 475 kts
2026-05-07 12:42 -29.72330 115.97194 33553 ft 475 kts
2026-05-07 12:42 -29.69079 115.97525 33756 ft 475 kts
2026-05-07 12:42 -29.65783 115.97860 33947 ft 476 kts
2026-05-07 12:42 -29.62488 115.98194 34130 ft 476 kts
2026-05-07 12:43 -29.59184 115.98530 34316 ft 476 kts
2026-05-07 12:43 -29.55882 115.98864 34324 ft 479 kts
2026-05-07 12:43 -29.49246 115.99537 34330 ft 478 kts
2026-05-07 12:44 -29.42640 116.00206 34328 ft 475 kts
2026-05-07 12:44 -29.36112 116.00866 34330 ft 474 kts
2026-05-07 12:45 -29.29551 116.01528 34331 ft 473 kts
2026-05-07 12:45 -29.22996 116.02188 34330 ft 473 kts
2026-05-07 12:46 -29.16451 116.02284 34343 ft 470 kts 353°
2026-05-07 12:46 -29.09918 116.01788 34326 ft 471 kts 352°
2026-05-07 12:47 -29.03414 116.01277 34326 ft 473 kts 353°
2026-05-07 12:47 -28.96825 116.00814 34324 ft 475 kts 353°
2026-05-07 12:48 -28.90216 116.00379 34324 ft 477 kts 353°
2026-05-07 12:48 -28.83631 115.99953 34323 ft 478 kts 353°
2026-05-07 12:49 -28.78764 115.99637 34317 ft 478 kts 353°
2026-05-07 12:49 -28.72113 115.99204 34317 ft 478 kts 353°
2026-05-07 12:50 -28.65471 115.98771 34311 ft 478 kts 352°
2026-05-07 12:50 -28.58875 115.98342 34314 ft 477 kts 352°
2026-05-07 12:51 -28.52250 115.97912 34312 ft 477 kts 352°
2026-05-07 12:51 -28.45636 115.97482 34316 ft 476 kts 352°
2026-05-07 12:52 -28.39030 115.97054 34310 ft 475 kts 352°
2026-05-07 12:52 -28.32438 115.96627 34309 ft 474 kts 352°
2026-05-07 12:53 -28.25894 115.96204 34301 ft 474 kts 352°
2026-05-07 12:53 -28.19315 115.95779 34305 ft 474 kts 352°
2026-05-07 12:54 -28.12733 115.95354 34302 ft 474 kts 352°
2026-05-07 12:54 -28.06146 115.94929 34297 ft 474 kts 352°
2026-05-07 12:55 -27.99599 115.94507 34290 ft 475 kts 351°
2026-05-07 12:55 -27.92999 115.94083 34292 ft 475 kts 351°
2026-05-07 12:56 -27.86388 115.93659 34286 ft 476 kts 351°
2026-05-07 12:56 -27.79764 115.93234 34285 ft 477 kts 351°
2026-05-07 12:57 -27.73131 115.92809 34285 ft 478 kts 351°
2026-05-07 12:57 -27.66523 115.92386 34283 ft 479 kts 351°
2026-05-07 12:58 -27.59871 115.91961 34279 ft 479 kts 351°
2026-05-07 12:58 -27.53207 115.91536 34280 ft 480 kts 350°
2026-05-07 12:59 -27.46539 115.91112 34265 ft 480 kts 350°
2026-05-07 12:59 -27.39909 115.90690 34270 ft 480 kts 350°
2026-05-07 13:00 -27.33236 115.90266 34265 ft 480 kts 350°
2026-05-07 13:00 -27.26564 115.89843 34261 ft 480 kts 349°
2026-05-07 13:01 -27.19894 115.89420 34261 ft 480 kts 349°
2026-05-07 13:01 -27.13277 115.89001 34265 ft 479 kts 349°
2026-05-07 13:02 -27.06618 115.88580 34258 ft 479 kts 349°
2026-05-07 13:02 -26.99957 115.88159 34259 ft 479 kts 349°
2026-05-07 13:03 -26.93344 115.87742 34256 ft 479 kts 349°
2026-05-07 13:03 -26.86685 115.87322 34250 ft 479 kts 348°
2026-05-07 13:04 -26.80022 115.86902 34247 ft 480 kts 348°
2026-05-07 13:04 -26.73355 115.86483 34243 ft 480 kts 348°
2026-05-07 13:05 -26.66677 115.86063 34237 ft 481 kts 348°
2026-05-07 13:05 -26.60041 115.85647 34244 ft 481 kts 348°
2026-05-07 13:06 -26.53343 115.85227 34240 ft 482 kts 348°
2026-05-07 13:06 -26.46635 115.84807 34230 ft 484 kts 348°
2026-05-07 13:07 -26.39908 115.84386 34231 ft 485 kts 347°
2026-05-07 13:07 -26.33164 115.83965 34225 ft 486 kts 347°
2026-05-07 13:08 -26.26454 115.83547 34224 ft 487 kts 347°
2026-05-07 13:08 -26.19689 115.83126 34218 ft 487 kts 347°
2026-05-07 13:09 -26.12918 115.82705 34226 ft 488 kts 347°
2026-05-07 13:09 -26.06139 115.82284 34214 ft 488 kts 347°
2026-05-07 13:10 -25.99358 115.81864 34210 ft 488 kts 347°
2026-05-07 13:10 -25.92628 115.81447 34210 ft 488 kts 346°
2026-05-07 13:11 -25.85854 115.81027 34209 ft 487 kts 346°
2026-05-07 13:11 -25.79088 115.80608 34205 ft 487 kts 346°
2026-05-07 13:12 -25.72323 115.80190 34198 ft 486 kts 346°
2026-05-07 13:12 -25.65619 115.79777 34198 ft 486 kts 346°
2026-05-07 13:13 -25.58873 115.79361 34192 ft 485 kts 346°
2026-05-07 13:13 -25.52145 115.78947 34194 ft 484 kts 346°
2026-05-07 13:14 -25.45416 115.78533 34192 ft 484 kts 345°
2026-05-07 13:14 -25.38691 115.78119 34188 ft 484 kts 345°
2026-05-07 13:15 -25.32015 115.77710 34183 ft 484 kts 345°
2026-05-07 13:15 -25.25294 115.77298 34179 ft 483 kts 345°
2026-05-07 13:16 -25.19716 115.76956 34176 ft 483 kts 345°
2026-05-07 13:16 -25.11868 115.76476 34177 ft 483 kts 345°
2026-05-07 13:17 -25.05161 115.76066 34172 ft 482 kts 345°
2026-05-07 13:17 -24.98506 115.75660 34179 ft 482 kts 344°
2026-05-07 13:18 -24.91807 115.75251 34166 ft 482 kts 344°
2026-05-07 13:18 -24.86235 115.74912 34169 ft 482 kts 344°
2026-05-07 13:19 -24.79545 115.74505 34167 ft 482 kts 344°
2026-05-07 13:19 -24.71770 115.74033 34165 ft 481 kts 344°
2026-05-07 13:20 -24.66170 115.73693 34169 ft 481 kts 344°
2026-05-07 13:20 -24.59537 115.73290 34158 ft 481 kts 344°
2026-05-07 13:21 -24.52858 115.72885 34162 ft 480 kts 344°
2026-05-07 13:21 -24.45103 115.72416 34157 ft 480 kts 344°
2026-05-07 13:22 -24.38440 115.72014 34154 ft 479 kts 344°
2026-05-07 13:22 -24.32903 115.71679 34154 ft 479 kts 344°
2026-05-07 13:23 -24.26251 115.71278 34157 ft 479 kts 344°
2026-05-07 13:23 -24.19599 115.70877 34149 ft 478 kts 344°
2026-05-07 13:24 -24.12952 115.70476 34148 ft 478 kts 344°
2026-05-07 13:24 -24.06356 115.70080 34149 ft 478 kts 344°
2026-05-07 13:25 -23.99719 115.69681 34145 ft 477 kts 344°
2026-05-07 13:25 -23.93090 115.69283 34146 ft 477 kts 344°
2026-05-07 13:26 -23.86456 115.68885 34147 ft 477 kts 344°
2026-05-07 13:26 -23.79832 115.68488 34143 ft 477 kts 343°
2026-05-07 13:27 -23.73249 115.68094 34137 ft 477 kts 344°
2026-05-07 13:27 -23.66631 115.67699 34137 ft 476 kts 344°
2026-05-07 13:28 -23.60013 115.67304 34130 ft 476 kts 344°
2026-05-07 13:28 -23.53396 115.66909 34131 ft 476 kts 344°
2026-05-07 13:29 -23.46826 115.66517 34128 ft 476 kts 344°
2026-05-07 13:29 -23.40224 115.66124 34131 ft 475 kts 344°
2026-05-07 13:30 -23.33619 115.65731 34128 ft 475 kts 344°
2026-05-07 13:30 -23.27023 115.65339 34124 ft 475 kts 344°
2026-05-07 13:31 -23.20433 115.64947 34127 ft 474 kts 344°
2026-05-07 13:31 -23.13840 115.64555 34122 ft 474 kts 344°
2026-05-07 13:32 -23.07300 115.64166 34117 ft 474 kts 344°
2026-05-07 13:32 -23.00716 115.63775 34119 ft 474 kts 344°
2026-05-07 13:33 -22.94135 115.63385 34112 ft 474 kts 344°
2026-05-07 13:33 -22.87552 115.62995 34113 ft 474 kts 344°
2026-05-07 13:34 -22.77725 115.62413 34105 ft 474 kts 344°
2026-05-07 13:35 -22.71139 115.62024 34108 ft 474 kts 344°
2026-05-07 13:35 -22.64544 115.61635 34106 ft 474 kts 344°
2026-05-07 13:36 -22.57958 115.61247 34105 ft 475 kts 344°
2026-05-07 13:36 -22.51403 115.60860 34105 ft 475 kts 344°
2026-05-07 13:37 -22.44807 115.60472 34098 ft 475 kts 344°
2026-05-07 13:37 -22.38207 115.60084 34104 ft 475 kts 344°
2026-05-07 13:38 -22.31607 115.59696 34098 ft 475 kts 345°
2026-05-07 13:38 -22.25049 115.59312 34097 ft 475 kts 345°
2026-05-07 13:39 -22.18452 115.58925 34098 ft 475 kts 345°
2026-05-07 13:39 -22.11859 115.58539 34098 ft 474 kts 345°
2026-05-07 13:40 -22.05268 115.58153 34099 ft 474 kts 345°
2026-05-07 13:40 -21.98724 115.57770 34094 ft 474 kts 345°
2026-05-07 13:40 -21.95494 115.57359 34083 ft 460 kts 336°
2026-05-07 13:41 -21.92447 115.56480 34097 ft 447 kts 328°
2026-05-07 13:41 -21.89652 115.55174 34092 ft 433 kts 321°
2026-05-07 13:41 -21.86984 115.53679 34091 ft 433 kts 321°
2026-05-07 13:42 -21.81650 115.50667 34093 ft 433 kts 321°
2026-05-07 13:42 -21.76296 115.47675 34085 ft 434 kts 321°
2026-05-07 13:43 -21.70953 115.44717 34083 ft 435 kts 321°
2026-05-07 13:43 -21.65562 115.41746 34086 ft 436 kts 321°
2026-05-07 13:44 -21.60157 115.38771 34084 ft 437 kts 321°
2026-05-07 13:44 -21.54745 115.35793 34086 ft 437 kts 321°
2026-05-07 13:45 -21.49324 115.32813 34081 ft 438 kts 322°
2026-05-07 13:45 -21.43933 115.29852 34084 ft 439 kts 322°
2026-05-07 13:46 -21.38495 115.26869 34078 ft 439 kts 322°
2026-05-07 13:46 -21.33059 115.23888 34081 ft 439 kts 322°
2026-05-07 13:47 -21.27656 115.20928 34075 ft 439 kts 322°
2026-05-07 13:47 -21.22218 115.17951 34074 ft 439 kts 322°
2026-05-07 13:48 -21.16782 115.14978 34072 ft 439 kts 322°
2026-05-07 13:48 -21.11349 115.12009 34077 ft 438 kts 322°
2026-05-07 13:49 -21.05954 115.09063 34072 ft 438 kts 322°
2026-05-07 13:49 -21.00524 115.06100 34073 ft 438 kts 322°
2026-05-07 13:50 -20.95101 115.03143 34071 ft 438 kts 322°
2026-05-07 13:50 -20.89661 115.00178 34245 ft 439 kts 322°
2026-05-07 13:50 -20.86942 114.98698 34447 ft 438 kts 322°
2026-05-07 13:51 -20.84265 114.97244 34645 ft 437 kts 322°
2026-05-07 13:51 -20.81561 114.95774 34800 ft 437 kts 322°
2026-05-07 13:51 -20.78849 114.94298 34914 ft 438 kts 322°
2026-05-07 13:51 -20.76136 114.92822 35052 ft 438 kts 322°
2026-05-07 13:52 -20.73422 114.91347 35195 ft 438 kts 322°
2026-05-07 13:52 -20.70705 114.89871 35324 ft 438 kts 322°
2026-05-07 13:52 -20.67987 114.88395 35462 ft 439 kts 322°
2026-05-07 13:52 -20.65264 114.86918 35613 ft 438 kts 322°
2026-05-07 13:53 -20.62545 114.85444 35742 ft 439 kts 322°
2026-05-07 13:53 -20.59822 114.83967 35858 ft 439 kts 322°
2026-05-07 13:53 -20.57103 114.82494 35987 ft 438 kts 322°
2026-05-07 13:54 -20.51694 114.79563 36054 ft 440 kts 322°
2026-05-07 13:54 -20.46221 114.76600 36062 ft 441 kts 323°
2026-05-07 13:55 -20.40738 114.73635 36066 ft 442 kts 323°
2026-05-07 13:55 -20.35248 114.70669 36063 ft 443 kts 323°
2026-05-07 13:56 -20.29791 114.67723 36061 ft 443 kts 323°
2026-05-07 13:56 -20.24296 114.64759 36057 ft 442 kts 323°
2026-05-07 13:57 -20.18806 114.61800 36055 ft 442 kts 323°
2026-05-07 13:57 -20.13321 114.58846 36058 ft 442 kts 323°
2026-05-07 13:58 -20.07879 114.55917 36057 ft 441 kts 323°
2026-05-07 13:58 -20.02401 114.52971 36057 ft 441 kts 323°
2026-05-07 13:59 -19.96929 114.50030 36057 ft 441 kts 323°
2026-05-07 13:59 -19.91459 114.47092 36059 ft 441 kts 323°
2026-05-07 14:00 -19.85984 114.44154 36059 ft 441 kts 323°
2026-05-07 14:00 -19.80543 114.41237 36055 ft 441 kts 323°
2026-05-07 14:01 -19.75058 114.38299 36057 ft 442 kts 323°
2026-05-07 14:01 -19.69569 114.35360 36063 ft 442 kts 323°
2026-05-07 14:02 -19.64066 114.32416 36055 ft 443 kts 323°
2026-05-07 14:02 -19.58595 114.29491 36056 ft 444 kts 324°
2026-05-07 14:03 -19.53075 114.26542 36052 ft 444 kts 324°
2026-05-07 14:03 -19.47442 114.23765 36054 ft 451 kts 329°
2026-05-07 14:04 -19.41526 114.21449 36042 ft 454 kts 331°
2026-05-07 14:04 -19.35607 114.19210 36044 ft 454 kts 331°
2026-05-07 14:05 -19.29666 114.16925 36045 ft 454 kts 330°
2026-05-07 14:05 -19.23736 114.14613 36039 ft 454 kts 330°
2026-05-07 14:06 -19.17809 114.12293 36041 ft 454 kts 330°
2026-05-07 14:06 -19.11919 114.09989 36043 ft 454 kts 330°
2026-05-07 14:07 -19.05992 114.07673 36041 ft 454 kts 330°
2026-05-07 14:07 -19.00065 114.05360 36038 ft 454 kts 331°
2026-05-07 14:08 -18.94135 114.03047 36040 ft 454 kts 331°
2026-05-07 14:08 -18.88248 114.00753 36036 ft 454 kts 331°
2026-05-07 14:09 -18.82315 113.98443 36038 ft 454 kts 331°
2026-05-07 14:09 -18.76388 113.96137 36038 ft 454 kts 331°
2026-05-07 14:10 -18.70459 113.93831 36034 ft 454 kts 331°
2026-05-07 14:10 -18.64528 113.91527 36036 ft 454 kts 331°
2026-05-07 14:11 -18.58630 113.89237 36034 ft 455 kts 331°
2026-05-07 14:11 -18.52691 113.86933 36031 ft 455 kts 331°
2026-05-07 14:12 -18.46750 113.84630 36030 ft 455 kts 331°
2026-05-07 14:12 -18.40805 113.82327 36032 ft 455 kts 332°
2026-05-07 14:13 -18.34894 113.80039 36030 ft 456 kts 332°
2026-05-07 14:13 -18.28941 113.77736 36035 ft 456 kts 332°
2026-05-07 14:14 -18.22984 113.75434 36031 ft 456 kts 332°
2026-05-07 14:14 -18.17029 113.73133 36027 ft 456 kts 332°
2026-05-07 14:15 -18.11107 113.70848 36023 ft 456 kts 332°
2026-05-07 14:15 -18.05145 113.68548 36036 ft 456 kts 332°
2026-05-07 14:16 -17.99185 113.66252 36028 ft 456 kts 332°
2026-05-07 14:16 -17.93236 113.63961 36029 ft 456 kts 332°
2026-05-07 14:17 -17.87281 113.61669 36032 ft 456 kts 332°
2026-05-07 14:17 -17.81365 113.59394 36022 ft 455 kts 332°
2026-05-07 14:18 -17.75419 113.57109 36026 ft 455 kts 332°
2026-05-07 14:18 -17.69470 113.54824 36023 ft 455 kts 332°
2026-05-07 14:19 -17.63524 113.52542 36027 ft 455 kts 332°
2026-05-07 14:19 -17.57618 113.50277 36025 ft 455 kts 332°
2026-05-07 14:20 -17.51673 113.47999 36023 ft 455 kts 332°
2026-05-07 14:20 -17.45725 113.45721 36025 ft 455 kts 332°
2026-05-07 14:21 -17.39774 113.43443 36023 ft 455 kts 332°
2026-05-07 14:21 -17.33861 113.41182 36021 ft 456 kts 333°
2026-05-07 14:22 -17.27903 113.38905 36021 ft 456 kts 333°
2026-05-07 14:22 -17.21945 113.36629 36020 ft 456 kts 333°
2026-05-07 14:23 -17.15976 113.34352 36018 ft 456 kts 333°
2026-05-07 14:23 -17.10053 113.32093 36020 ft 457 kts 333°
2026-05-07 14:24 -17.04080 113.29816 36018 ft 457 kts 333°
2026-05-07 14:24 -16.98109 113.27542 36019 ft 457 kts 333°
2026-05-07 14:25 -16.92131 113.25267 36018 ft 457 kts 333°
2026-05-07 14:25 -16.86195 113.23010 36017 ft 457 kts 333°
2026-05-07 14:26 -16.80222 113.20739 36015 ft 457 kts 333°
2026-05-07 14:26 -16.74245 113.18469 36009 ft 457 kts 333°
2026-05-07 14:27 -16.68271 113.16201 36008 ft 457 kts 333°
2026-05-07 14:27 -16.62333 113.13949 36017 ft 457 kts 333°
2026-05-07 14:28 -16.56357 113.11683 36011 ft 457 kts 333°
2026-05-07 14:28 -16.50384 113.09420 36014 ft 457 kts 333°
2026-05-07 14:29 -16.44406 113.07157 36015 ft 457 kts 333°
2026-05-07 14:29 -16.38467 113.04910 36006 ft 457 kts 333°
2026-05-07 14:30 -16.32492 113.02650 36006 ft 457 kts 333°
2026-05-07 14:30 -16.26516 113.00392 36010 ft 457 kts 334°
2026-05-07 14:31 -16.20539 112.98138 36012 ft 457 kts 334°
2026-05-07 14:31 -16.14564 112.95885 36011 ft 457 kts 334°
2026-05-07 14:32 -16.08632 112.93650 36007 ft 456 kts 334°
2026-05-07 14:32 -16.02664 112.91402 36005 ft 456 kts 333°
2026-05-07 14:33 -15.96692 112.89154 36004 ft 456 kts 333°
2026-05-07 14:33 -15.90722 112.86908 36011 ft 456 kts 334°
2026-05-07 14:34 -15.84757 112.84665 36006 ft 456 kts 334°
2026-05-07 14:34 -15.78836 112.82440 36004 ft 456 kts 334°
2026-05-07 14:35 -15.72868 112.80199 36007 ft 456 kts 334°
2026-05-07 14:35 -15.66903 112.77961 36005 ft 456 kts 334°
2026-05-07 14:36 -15.60937 112.75723 36004 ft 456 kts 334°
2026-05-07 14:36 -15.55011 112.73502 36005 ft 456 kts 334°
2026-05-07 14:37 -15.49047 112.71268 36005 ft 456 kts 334°
2026-05-07 14:37 -15.40093 112.67916 36001 ft 456 kts 334°
2026-05-07 14:38 -15.34161 112.65698 36003 ft 456 kts 334°
2026-05-07 14:38 -15.28191 112.63466 35999 ft 456 kts 334°
2026-05-07 14:39 -15.22214 112.61234 36000 ft 456 kts 334°
2026-05-07 14:39 -15.16237 112.59002 36000 ft 457 kts 334°
2026-05-07 14:40 -15.10262 112.56773 35997 ft 457 kts 334°
2026-05-07 14:40 -15.04326 112.54559 35994 ft 456 kts 334°
2026-05-07 14:41 -14.98352 112.52333 35998 ft 456 kts 334°
2026-05-07 14:41 -14.92378 112.50108 35994 ft 456 kts 334°
2026-05-07 14:42 -14.86403 112.47885 35995 ft 456 kts 334°
2026-05-07 14:42 -14.80472 112.45678 35995 ft 456 kts 334°
2026-05-07 14:43 -14.74502 112.43459 35994 ft 456 kts 334°
2026-05-07 14:43 -14.68535 112.41241 35992 ft 456 kts 334°
2026-05-07 14:44 -14.62570 112.39026 35993 ft 456 kts 334°
2026-05-07 14:44 -14.56643 112.36827 35992 ft 456 kts 334°
2026-05-07 14:45 -14.50679 112.34615 35991 ft 455 kts 334°
2026-05-07 14:45 -14.44717 112.32404 35990 ft 455 kts 334°
2026-05-07 14:46 -14.38747 112.30192 35988 ft 456 kts 334°
2026-05-07 14:46 -14.32785 112.27984 35988 ft 456 kts 334°
2026-05-07 14:47 -14.26855 112.25790 35987 ft 456 kts 335°
2026-05-07 14:47 -14.20885 112.23582 35984 ft 456 kts 335°
2026-05-07 14:48 -14.14912 112.21374 35986 ft 456 kts 335°
2026-05-07 14:48 -14.08937 112.19166 35982 ft 456 kts 335°
2026-05-07 14:49 -14.02997 112.16973 35984 ft 457 kts 335°
2026-05-07 14:49 -13.97014 112.14765 35980 ft 457 kts 335°
2026-05-07 14:50 -13.91032 112.12559 35980 ft 457 kts 335°
2026-05-07 14:50 -13.85043 112.10351 35979 ft 457 kts 335°
2026-05-07 14:51 -13.79050 112.08143 35978 ft 458 kts 335°
2026-05-07 14:51 -13.73092 112.05949 35980 ft 458 kts 335°
2026-05-07 14:52 -13.67093 112.03741 35980 ft 458 kts 335°
2026-05-07 14:52 -13.61094 112.01534 35979 ft 458 kts 335°
2026-05-07 14:53 -13.55086 111.99326 35973 ft 458 kts 335°
2026-05-07 14:53 -13.49121 111.97134 35976 ft 458 kts 335°
2026-05-07 14:54 -13.43114 111.94928 35975 ft 459 kts 335°
2026-05-07 14:54 -13.37104 111.92722 35974 ft 459 kts 335°
2026-05-07 14:55 -13.31090 111.90515 35975 ft 459 kts 335°
2026-05-07 14:55 -13.25114 111.88325 35971 ft 459 kts 335°
2026-05-07 14:56 -13.19099 111.86120 35973 ft 459 kts 335°
2026-05-07 14:56 -13.13082 111.83916 35969 ft 459 kts 335°
2026-05-07 14:57 -13.07057 111.81710 35970 ft 460 kts 336°
2026-05-07 14:57 -13.01072 111.79521 35970 ft 460 kts 336°
2026-05-07 14:58 -12.95043 111.77316 35970 ft 460 kts 336°
2026-05-07 14:58 -12.89013 111.75112 35967 ft 460 kts 336°
2026-05-07 14:59 -12.82980 111.72907 35968 ft 460 kts 336°
2026-05-07 14:59 -12.76982 111.70718 35964 ft 461 kts 336°
2026-05-07 15:00 -12.70944 111.68514 35964 ft 461 kts 336°
2026-05-07 15:00 -12.64904 111.66311 35963 ft 461 kts 336°
2026-05-07 15:01 -12.58870 111.64110 35967 ft 461 kts 336°
2026-05-07 15:01 -12.52829 111.61909 35962 ft 461 kts 336°
2026-05-07 15:02 -12.46827 111.59723 35961 ft 461 kts 336°
2026-05-07 15:02 -12.40785 111.57523 35963 ft 461 kts 336°
2026-05-07 15:03 -12.34741 111.55323 35963 ft 461 kts 336°
2026-05-07 15:03 -12.28695 111.53125 35959 ft 461 kts 336°
2026-05-07 15:04 -12.22693 111.50943 35955 ft 461 kts 336°
2026-05-07 15:04 -12.16646 111.48745 35962 ft 461 kts 336°
2026-05-07 15:05 -12.10593 111.46546 35958 ft 461 kts 336°
2026-05-07 15:05 -12.04546 111.44351 35955 ft 462 kts 336°
2026-05-07 15:06 -11.98769 111.41700 35952 ft 455 kts 323°
2026-05-07 15:06 -11.93793 111.37782 35950 ft 452 kts 317°
2026-05-07 15:07 -11.88917 111.33728 35952 ft 452 kts 317°
2026-05-07 15:07 -11.84024 111.29696 35951 ft 452 kts 318°
2026-05-07 15:08 -11.79139 111.25706 35948 ft 453 kts 318°
2026-05-07 15:08 -11.74215 111.21699 35951 ft 453 kts 318°
2026-05-07 15:09 -11.69283 111.17689 35956 ft 453 kts 318°
2026-05-07 15:09 -11.64350 111.13679 35956 ft 454 kts 318°
2026-05-07 15:10 -11.59446 111.09693 35955 ft 454 kts 318°
2026-05-07 15:10 -11.54507 111.05681 35950 ft 454 kts 318°
2026-05-07 15:11 -11.49565 111.01669 35947 ft 454 kts 319°
2026-05-07 15:11 -11.44621 110.97657 35955 ft 454 kts 319°
2026-05-07 15:12 -11.39712 110.93675 35955 ft 454 kts 319°
2026-05-07 15:12 -11.34768 110.89666 35941 ft 454 kts 319°
2026-05-07 15:13 -11.29824 110.85659 35936 ft 454 kts 319°
2026-05-07 15:13 -11.24877 110.81651 35950 ft 454 kts 319°
2026-05-07 15:14 -11.19966 110.77674 35946 ft 454 kts 319°
2026-05-07 15:14 -11.15020 110.73671 35945 ft 454 kts 319°
2026-05-07 15:15 -11.10072 110.69668 35943 ft 454 kts 319°
2026-05-07 15:15 -11.05122 110.65665 35940 ft 454 kts 319°
2026-05-07 15:16 -11.00176 110.61667 35941 ft 454 kts 319°
2026-05-07 15:16 -10.95257 110.57694 35939 ft 454 kts 319°
2026-05-07 15:17 -10.90306 110.53696 35943 ft 454 kts 319°
2026-05-07 15:17 -10.85354 110.49698 35938 ft 455 kts 319°
2026-05-07 15:18 -10.80401 110.45701 35940 ft 455 kts 319°
2026-05-07 15:18 -10.75441 110.41701 35937 ft 455 kts 319°
2026-05-07 15:19 -10.70516 110.37730 35939 ft 455 kts 319°
2026-05-07 15:19 -10.65552 110.33730 35937 ft 455 kts 319°
2026-05-07 15:20 -10.60582 110.29727 35936 ft 456 kts 319°
2026-05-07 15:20 -10.55643 110.25750 35935 ft 456 kts 319°
2026-05-07 15:21 -10.50663 110.21742 35935 ft 457 kts 319°
2026-05-07 15:21 -10.45680 110.17734 35932 ft 457 kts 319°
2026-05-07 15:22 -10.40693 110.13724 35930 ft 457 kts 319°
2026-05-07 15:22 -10.35703 110.09713 35931 ft 457 kts 319°
2026-05-07 15:23 -10.30743 110.05728 35932 ft 457 kts 319°
2026-05-07 15:23 -10.25753 110.01721 35934 ft 457 kts 319°
2026-05-07 15:24 -10.20764 109.97715 35931 ft 457 kts 319°
2026-05-07 15:24 -10.15775 109.93712 35928 ft 457 kts 319°
2026-05-07 15:25 -10.10819 109.89737 35929 ft 457 kts 320°
2026-05-07 15:25 -10.05833 109.85738 35927 ft 457 kts 320°
2026-05-07 15:26 -10.00846 109.81742 35924 ft 457 kts 320°
2026-05-07 15:26 -9.95863 109.77749 35928 ft 456 kts 320°
2026-05-07 15:27 -9.90909 109.73783 35926 ft 456 kts 320°
2026-05-07 15:27 -9.85928 109.69795 35926 ft 456 kts 320°
2026-05-07 15:28 -9.80946 109.65808 35927 ft 456 kts 320°
2026-05-07 15:28 -9.75962 109.61821 35925 ft 456 kts 320°
2026-05-07 15:29 -9.70980 109.57838 35923 ft 456 kts 320°
2026-05-07 15:29 -9.66023 109.53877 35921 ft 457 kts 320°
2026-05-07 15:30 -9.61035 109.49891 35920 ft 457 kts 320°
2026-05-07 15:30 -9.56038 109.45900 35924 ft 457 kts 320°
2026-05-07 15:31 -9.51042 109.41911 35924 ft 458 kts 320°
2026-05-07 15:31 -9.46074 109.37947 35920 ft 458 kts 320°
2026-05-07 15:32 -9.41070 109.33955 35920 ft 458 kts 320°
2026-05-07 15:32 -9.36061 109.29960 35919 ft 458 kts 320°
2026-05-07 15:33 -9.31049 109.25966 35920 ft 458 kts 320°
2026-05-07 15:33 -9.26068 109.21998 35918 ft 459 kts 320°
2026-05-07 15:34 -9.21058 109.18006 35916 ft 459 kts 320°
2026-05-07 15:34 -9.16041 109.14011 35917 ft 459 kts 320°
2026-05-07 15:35 -9.11019 109.10013 35920 ft 459 kts 320°
2026-05-07 15:35 -9.06000 109.06020 35916 ft 459 kts 320°
2026-05-07 15:36 -9.01012 109.02053 35913 ft 459 kts 320°
2026-05-07 15:36 -8.95985 108.98056 35916 ft 460 kts 320°
2026-05-07 15:37 -8.90952 108.94056 35913 ft 460 kts 320°
2026-05-07 15:37 -8.85922 108.90060 35914 ft 460 kts 320°
2026-05-07 15:38 -8.80921 108.86087 35910 ft 461 kts 320°
2026-05-07 15:38 -8.75878 108.82084 35915 ft 461 kts 320°
2026-05-07 15:39 -8.70836 108.78083 35915 ft 461 kts 320°
2026-05-07 15:39 -8.65785 108.74075 35916 ft 462 kts 320°
2026-05-07 15:40 -8.60731 108.70067 35915 ft 462 kts 320°
2026-05-07 15:40 -8.55711 108.66086 35913 ft 462 kts 320°
2026-05-07 15:41 -8.50650 108.62075 35917 ft 463 kts 320°
2026-05-07 15:41 -8.45583 108.58061 35912 ft 463 kts 321°
2026-05-07 15:42 -8.40513 108.54046 35913 ft 463 kts 321°
2026-05-07 15:42 -8.35481 108.50061 35912 ft 463 kts 321°
2026-05-07 15:43 -8.30409 108.46047 35910 ft 463 kts 321°
2026-05-07 15:43 -8.25341 108.42037 35913 ft 463 kts 321°
2026-05-07 15:44 -8.20267 108.38023 35913 ft 463 kts 321°
2026-05-07 15:44 -8.15230 108.34039 35913 ft 463 kts 321°
2026-05-07 15:45 -8.10159 108.30031 35911 ft 463 kts 321°
2026-05-07 15:45 -8.07504 108.28199 35880 ft 464 kts 334°
2026-05-07 15:45 -8.04463 108.27139 35922 ft 464 kts 349°